DateTimeUTC,F1_A11,F1_S11,BsB_S11,BsG_S11,BsR_S11,BbsB_S11,BbsG_S11,BbsR_S11,BaB_A11,BaG_A11,BaR_A11,Tu_S11,T_S11,Uu_S11,U_S11,P_S11,T1_A11
2021-10-18T03:00:00Z,00000200,21000000,,,,,,,0000.06,-000.22,0000.18,16.9,24.0,,00.0,0669.5,30.9
2021-10-18T03:01:00Z,00000200,21000000,,,,,,,-000.07,0000.04,-000.19,16.9,24.0,,00.0,0669.5,30.9
2021-10-18T03:02:00Z,00000200,21000000,,,,,,,-000.09,0000.13,-000.27,16.9,24.0,,00.0,0669.5,30.9
2021-10-18T03:03:00Z,00000200,61000000,,,,,,,0000.50,0000.23,0000.60,16.9,24.0,,00.0,0669.5,31.0
2021-10-18T03:04:00Z,00000200,41000000,0002.36,0001.33,0000.65,0000.22,0000.02,0000.23,0000.73,0000.87,0000.26,17.1,23.8,,00.0,0670.4,30.9
2021-10-18T03:05:00Z,00000200,01000000,0001.33,0001.48,0000.87,-000.04,0000.23,0000.14,0000.33,0000.31,0000.46,17.2,23.8,,00.0,0670.5,30.9
2021-10-18T03:06:00Z,00000200,01000000,0001.48,0000.94,0000.85,0000.28,-000.09,0000.42,0000.32,0000.20,0000.43,17.2,23.8,,00.0,0670.5,30.9
2021-10-18T03:07:00Z,00000200,01000000,0002.61,0001.58,0000.76,0000.38,0000.03,0000.22,0000.29,0000.16,0000.13,17.2,23.8,,00.0,0670.6,30.9
2021-10-18T03:08:00Z,00000200,01000000,0002.22,0001.41,0001.12,0000.25,0000.09,0000.42,0000.21,0000.26,-000.03,17.2,23.8,,00.0,0670.6,30.9
2021-10-18T03:09:00Z,00000200,01000000,0001.87,0001.76,0000.95,-000.09,0000.29,0000.24,0000.43,0000.43,0000.19,17.1,23.8,,00.0,0670.6,30.9
2021-10-18T03:10:00Z,00000200,01000000,0002.05,0001.18,0000.68,-000.13,0000.23,0000.11,0000.40,0000.12,0000.32,17.1,23.7,,00.0,0670.6,30.9
2021-10-18T03:11:00Z,00000200,01000000,0002.29,0001.84,0000.74,0000.05,0000.41,0000.17,0000.15,0000.35,0000.01,17.0,23.7,,00.0,0670.6,30.9
2021-10-18T03:12:00Z,00000200,01000000,0001.74,0001.30,0000.57,0000.53,0000.46,0000.06,0000.11,0000.02,-000.16,16.9,23.6,,00.0,0670.6,30.8
2021-10-18T03:13:00Z,00000200,01000000,0002.14,0001.27,0000.88,0000.22,0000.15,0000.45,0000.24,-000.26,0000.26,16.8,23.5,,00.0,0670.6,30.8
2021-10-18T03:14:00Z,00000200,01000000,0001.14,0000.74,0000.67,-000.46,0000.04,0000.50,0000.10,0000.55,-000.13,16.7,23.5,,00.0,0670.6,30.8
2021-10-18T03:15:00Z,00000200,01000000,0001.76,0000.51,0000.74,0000.02,0000.23,-000.00,-000.07,-000.06,0000.23,16.7,23.4,,00.0,0670.7,30.8
2021-10-18T03:16:00Z,00000200,01000000,0000.76,0000.85,0000.62,0000.22,0000.03,0000.41,0000.41,-000.10,0000.02,16.7,23.4,,00.0,0670.7,30.8
2021-10-18T03:17:00Z,00000200,01000000,0000.92,0001.16,0000.27,-000.13,0000.07,0000.14,-000.17,-000.02,0000.38,16.7,23.4,,00.0,0670.7,30.8
2021-10-18T03:18:00Z,00000200,01000000,0001.51,0000.89,0000.82,-000.02,0000.28,0000.30,-000.19,0000.21,-000.11,16.7,23.4,,00.0,0670.7,30.9
2021-10-18T03:19:00Z,00000200,01000000,0001.59,0001.04,0000.55,0000.77,-000.03,0000.43,0000.34,0000.11,-000.12,16.8,23.4,,00.0,0670.7,30.9
2021-10-18T03:20:00Z,00000200,01000000,0001.93,0000.78,0000.62,0000.45,0000.28,0000.02,0000.50,0000.67,0000.22,16.8,23.5,,00.0,0670.7,30.9
2021-10-18T03:21:00Z,00000200,01000000,0001.23,0000.98,0000.71,0000.11,0000.05,0000.31,-000.25,0000.13,0000.34,16.8,23.4,,00.0,0670.7,30.9
2021-10-18T03:22:00Z,00000200,01000000,0001.20,0001.47,0000.63,0000.07,0000.10,0000.25,0000.45,0000.09,-000.16,16.8,23.5,,00.0,0670.7,30.9
2021-10-18T03:23:00Z,00000200,01000000,0001.24,0000.74,0000.20,0000.14,-000.06,-000.09,0000.30,-000.06,0000.32,16.8,23.5,,00.0,0670.7,30.9
2021-10-18T03:24:00Z,00000200,01000000,0001.38,0000.98,0000.35,0000.34,0000.16,0000.10,-000.10,0000.49,0000.01,16.9,23.5,,00.0,0670.7,30.9
2021-10-18T03:25:00Z,00000200,01000000,0001.15,0000.69,0000.63,-000.36,0000.02,-000.06,0000.56,0000.03,0000.30,16.9,23.5,,00.0,0670.7,30.9
2021-10-18T03:26:00Z,00000200,01000000,0001.10,0000.56,0000.60,-000.66,0000.16,0000.31,0000.10,0000.38,0000.21,16.9,23.5,,00.0,0670.7,30.9
2021-10-18T03:27:00Z,00000200,01000000,0000.93,0000.14,0000.09,-000.17,0000.05,0000.19,0000.41,0000.34,0000.40,17.0,23.5,,00.0,0670.7,30.9
2021-10-18T03:28:00Z,00000200,01000000,0000.15,-000.13,-000.03,-000.11,-000.09,0000.17,0000.22,-000.03,-000.33,17.0,23.6,,00.0,0670.6,30.9
2021-10-18T03:29:00Z,00000200,01000000,-000.83,-000.31,-000.04,-000.44,0000.10,0000.20,-000.02,-000.15,0000.28,17.0,23.6,,00.0,0670.6,30.9
2021-10-18T03:30:00Z,00000200,01000000,0000.03,-000.20,-000.23,0000.08,0000.10,-000.09,0000.18,0000.24,0000.20,17.0,23.6,,00.0,0670.6,30.9
2021-10-18T03:31:00Z,00000200,01000000,0000.22,0000.32,-000.20,-000.45,0000.07,0000.07,0000.02,0000.17,-000.13,17.0,23.6,,00.0,0670.6,30.9
2021-10-18T03:32:00Z,00000200,01000000,0000.62,0000.22,-000.17,-000.10,-000.11,0000.46,0000.02,-000.06,0000.19,17.0,23.6,,00.0,0670.6,30.9
2021-10-18T03:33:00Z,00000200,01000000,0000.14,0000.46,0000.36,0000.73,-000.17,0000.02,0000.45,0000.29,-000.07,17.0,23.6,,00.0,0670.5,30.9
2021-10-18T03:34:00Z,00000200,01000000,0000.94,0000.64,0000.22,0000.15,0000.18,0000.28,0000.39,0000.19,0000.28,17.0,23.6,,00.0,0670.5,30.9
2021-10-18T03:35:00Z,00000200,01000000,0001.62,0001.28,0000.96,-000.17,-000.08,0000.17,0000.23,0000.54,0000.66,17.0,23.6,,00.0,0670.5,30.9
2021-10-18T03:36:00Z,00000200,01000000,0001.65,0001.41,0000.97,0000.43,0000.43,-000.04,0000.76,0000.56,0000.16,17.0,23.6,,00.0,0670.5,30.9
2021-10-18T03:37:00Z,00000200,01000000,0002.08,0001.46,0000.95,0000.27,0000.47,0000.40,0000.98,0000.95,0000.70,17.0,23.6,,00.0,0670.5,30.9
2021-10-18T03:38:00Z,00000200,01000000,0002.51,0001.49,0000.85,0000.23,0000.06,0000.38,0000.61,0000.54,0000.47,17.1,23.6,,00.0,0670.5,30.9
2021-10-18T03:39:00Z,00000200,01000000,0002.57,0001.68,0000.96,0000.65,0000.37,-000.01,0000.64,0000.78,0000.58,17.1,23.6,,00.0,0670.5,30.9
2021-10-18T03:40:00Z,00000200,01000000,0001.98,0001.26,0000.79,0000.28,0000.04,0000.36,0000.52,0000.33,0000.02,17.1,23.6,,00.0,0670.5,30.9
2021-10-18T03:41:00Z,00000200,01000000,0002.24,0002.10,0001.26,-000.83,0000.26,0000.42,0000.79,0000.80,0000.57,17.1,23.6,,00.0,0670.4,30.9
2021-10-18T03:42:00Z,00000200,01000000,0002.06,0001.38,0001.18,0000.22,0000.40,0000.42,0000.19,0000.02,0000.23,17.0,23.6,,00.0,0670.4,30.9
2021-10-18T03:43:00Z,00000200,01000000,0001.50,0001.72,0001.28,-000.34,0000.37,0000.65,0000.54,-000.09,0000.30,16.9,23.6,,00.0,0670.4,30.9
2021-10-18T03:44:00Z,00000200,01000000,0001.67,0001.57,0000.88,0000.16,0000.14,0000.14,0000.52,0000.92,0000.34,16.8,23.5,,00.0,0670.4,30.8
2021-10-18T03:45:00Z,00000200,01000000,0002.08,0001.86,0001.07,-000.14,0000.02,0000.17,0000.42,0000.12,0000.27,16.8,23.5,,00.0,0670.4,30.8
2021-10-18T03:46:00Z,00000200,01000000,0002.18,0001.40,0000.65,-000.11,0000.21,0000.48,0000.21,0000.57,0000.30,16.8,23.4,,00.0,0670.4,30.8
2021-10-18T03:47:00Z,00000200,01000000,0002.28,0001.57,0001.29,0000.28,0000.05,0000.37,0000.46,0000.30,0000.07,16.8,23.4,,00.0,0670.4,30.8
2021-10-18T03:48:00Z,00000200,01000000,0001.38,0001.47,0000.93,0000.26,0000.25,0000.45,0000.64,0000.36,0000.62,16.8,23.4,,00.0,0670.4,30.9
2021-10-18T03:49:00Z,00000200,01010000,0001.34,0001.56,0001.06,0000.53,0000.24,0000.32,-000.10,0000.46,0000.13,16.8,23.4,,00.0,0670.5,30.9
2021-10-18T03:50:00Z,00000200,01000000,0002.77,0001.78,0000.72,-000.00,0000.36,0000.26,0000.49,0000.12,0000.04,16.8,23.4,,00.0,0670.5,30.9
2021-10-18T03:51:00Z,00000200,01000000,0002.56,0001.16,0000.73,-000.18,0000.23,0000.03,0000.42,0000.70,0000.63,16.8,23.4,,00.0,0670.5,30.9
2021-10-18T03:52:00Z,00000200,01000000,0002.35,0001.75,0000.66,0000.51,0000.42,0000.27,0000.33,0000.18,0000.15,16.9,23.5,,00.0,0670.5,30.9
2021-10-18T03:53:00Z,00000200,01000000,0002.26,0001.72,0000.84,0000.26,0000.29,0000.26,0000.75,0000.67,0000.41,16.9,23.5,,00.0,0670.5,30.9
2021-10-18T03:54:00Z,00000200,01000000,0001.64,0001.60,0000.97,-000.50,0000.43,-000.05,0000.62,0000.25,0000.02,16.9,23.5,,00.0,0670.5,30.9
2021-10-18T03:55:00Z,00000200,01000000,0001.55,0001.40,0000.77,-000.12,-000.04,0000.11,0000.25,0000.47,0000.31,17.0,23.5,,00.0,0670.5,30.9
2021-10-18T03:56:00Z,00000200,01000000,0001.62,0000.72,0000.92,0000.66,-000.30,0000.33,0000.16,-000.02,0000.10,17.0,23.5,,00.0,0670.5,30.9
2021-10-18T03:57:00Z,00000200,41000000,,,,,,,0000.82,0000.68,0000.48,17.0,23.6,,00.0,0670.5,30.9
2021-10-18T03:58:00Z,00000200,61000000,,,,,,,-000.40,-000.58,-000.45,16.7,23.7,,00.0,0669.5,30.9
2021-10-18T03:59:00Z,00000200,21000000,,,,,,,-000.41,0000.03,0000.22,16.6,23.8,,00.0,0669.5,30.9
